Hourly Weather Rudnik

Today, 19 April, Monday

Time Temperature Precipitation Wind Pressure Humidity
00:00 +8°C° 0 mm 2 mps 746 mmHg 83%
01:00 +7°C° 0 mm 2 mps 746 mmHg 86%
02:00 +7°C° 0 mm 2 mps 745 mmHg 87%
03:00 +7°C° 0 mm 2 mps 745 mmHg 89%
04:00 +7°C° 0 mm 2 mps 745 mmHg 90%
05:00 +7°C° 0 mm 2 mps 745 mmHg 90%
06:00 +8°C° 0 mm 2 mps 745 mmHg 89%
07:00 +8°C° 0 mm 2 mps 745 mmHg 87%
08:00 +10°C° 0 mm 2 mps 745 mmHg 80%
09:00 +11°C° 0 mm 3 mps 745 mmHg 74%
10:00 +13°C° 0 mm 3 mps 745 mmHg 67%
11:00 +14°C° 0.1 mm 4 mps 745 mmHg 62%
12:00 +14°C° 0.1 mm 4 mps 744 mmHg 57%
13:00 +14°C° 0.1 mm 5 mps 744 mmHg 52%
14:00 +14°C° 0 mm 4 mps 744 mmHg 56%
15:00 +13°C° 0 mm 4 mps 744 mmHg 59%
16:00 +12°C° 0 mm 4 mps 744 mmHg 62%
17:00 +12°C° 0 mm 3 mps 744 mmHg 63%
18:00 +11°C° 0 mm 3 mps 744 mmHg 63%
19:00 +10°C° 0 mm 2 mps 744 mmHg 64%
20:00 +10°C° 0 mm 2 mps 744 mmHg 66%
21:00 +9°C° 0 mm 2 mps 744 mmHg 68%
22:00 +8°C° 0 mm 2 mps 744 mmHg 71%
23:00 +7°C° 0 mm 2 mps 744 mmHg 75%

Tomorrow, 20 April, Tuesday

Time Temperature Precipitation Wind Pressure Humidity
00:00 +7°C° 0 mm 2 mps 744 mmHg 79%
01:00 +6°C° 0 mm 2 mps 744 mmHg 83%
02:00 +5°C° 0 mm 2 mps 744 mmHg 85%
03:00 +5°C° 0 mm 2 mps 744 mmHg 86%
04:00 +5°C° 0 mm 2 mps 744 mmHg 87%
05:00 +6°C° 0 mm 2 mps 744 mmHg 82%
06:00 +7°C° 0 mm 2 mps 744 mmHg 77%
07:00 +8°C° 0 mm 2 mps 744 mmHg 72%
08:00 +9°C° 0 mm 2 mps 744 mmHg 65%
09:00 +11°C° 0 mm 3 mps 744 mmHg 57%
10:00 +12°C° 0 mm 3 mps 744 mmHg 49%
11:00 +13°C° 0 mm 2 mps 743 mmHg 48%
12:00 +13°C° 0 mm 2 mps 743 mmHg 47%
13:00 +14°C° 0 mm 1 mps 743 mmHg 45%
14:00 +14°C° 0 mm 1 mps 742 mmHg 46%
15:00 +14°C° 0 mm 1 mps 742 mmHg 46%
16:00 +14°C° 0 mm 1 mps 742 mmHg 46%
17:00 +13°C° 0 mm 1 mps 742 mmHg 50%
18:00 +12°C° 0 mm 1 mps 742 mmHg 54%
19:00 +11°C° 0 mm 1 mps 742 mmHg 58%
20:00 +10°C° 0 mm 1 mps 742 mmHg 59%
21:00 +9°C° 0 mm 2 mps 742 mmHg 61%
22:00 +8°C° 0 mm 2 mps 742 mmHg 63%
23:00 +8°C° 0 mm 2 mps 741 mmHg 64%

Day after tomorrow, 21 April, Wednesday

Time Temperature Precipitation Wind Pressure Humidity
00:00 +7°C° 0 mm 2 mps 741 mmHg 66%
01:00 +7°C° 0 mm 2 mps 741 mmHg 67%
02:00 +7°C° 0 mm 2 mps 741 mmHg 71%
03:00 +6°C° 0 mm 2 mps 741 mmHg 75%
04:00 +6°C° 0 mm 2 mps 741 mmHg 79%
05:00 +7°C° 0.1 mm 3 mps 741 mmHg 79%
06:00 +8°C° 0.1 mm 3 mps 741 mmHg 79%
07:00 +9°C° 0.1 mm 3 mps 741 mmHg 79%
08:00 +10°C° 0.3 mm 3 mps 741 mmHg 74%
09:00 +11°C° 0.3 mm 4 mps 741 mmHg 69%
10:00 +13°C° 0.3 mm 4 mps 740 mmHg 64%
11:00 +13°C° 0.7 mm 4 mps 740 mmHg 63%
12:00 +13°C° 0.7 mm 5 mps 740 mmHg 62%
13:00 +14°C° 0.7 mm 6 mps 740 mmHg 60%
14:00 +14°C° 0.3 mm 5 mps 739 mmHg 59%
15:00 +14°C° 0.3 mm 5 mps 739 mmHg 59%
16:00 +13°C° 0.3 mm 5 mps 739 mmHg 58%
17:00 +12°C° 0 mm 5 mps 739 mmHg 60%
18:00 +11°C° 0 mm 4 mps 739 mmHg 63%
19:00 +10°C° 0 mm 3 mps 740 mmHg 65%
20:00 +10°C° 0 mm 3 mps 740 mmHg 67%
21:00 +9°C° 0 mm 3 mps 740 mmHg 69%
22:00 +9°C° 0 mm 3 mps 740 mmHg 71%
23:00 +8°C° 0 mm 3 mps 740 mmHg 77%

22 April, Thursday

Time Temperature Precipitation Wind Pressure Humidity
00:00 +6°C° 0 mm 4 mps 740 mmHg 83%
01:00 +5°C° 0 mm 4 mps 740 mmHg 88%
02:00 +5°C° 0 mm 4 mps 741 mmHg 86%
03:00 +5°C° 0 mm 4 mps 741 mmHg 84%
04:00 +5°C° 0 mm 4 mps 741 mmHg 82%
05:00 +5°C° 0 mm 4 mps 741 mmHg 78%
06:00 +5°C° 0 mm 5 mps 741 mmHg 75%
07:00 +5°C° 0 mm 5 mps 742 mmHg 72%
08:00 +5°C° 0 mm 5 mps 742 mmHg 64%
09:00 +6°C° 0 mm 5 mps 742 mmHg 56%
10:00 +6°C° 0 mm 5 mps 742 mmHg 48%
11:00 +7°C° 0 mm 5 mps 742 mmHg 47%
12:00 +7°C° 0 mm 6 mps 742 mmHg 45%
13:00 +8°C° 0 mm 6 mps 742 mmHg 44%
14:00 +8°C° 0 mm 6 mps 742 mmHg 45%
15:00 +8°C° 0 mm 6 mps 741 mmHg 45%
16:00 +8°C° 0 mm 6 mps 741 mmHg 46%
17:00 +7°C° 0 mm 5 mps 741 mmHg 51%
18:00 +5°C° 0 mm 4 mps 742 mmHg 57%
19:00 +4°C° 0 mm 3 mps 742 mmHg 62%
20:00 +4°C° 0 mm 4 mps 742 mmHg 64%
21:00 +3°C° 0 mm 4 mps 741 mmHg 66%
22:00 +2°C° 0 mm 5 mps 741 mmHg 68%
23:00 +2°C° 0.1 mm 6 mps 741 mmHg 76%

23 April, Friday

Time Temperature Precipitation Wind Pressure Humidity
00:00 +1°C° 0.1 mm 6 mps 741 mmHg 83%
01:00 0°C° 0.1 mm 7 mps 741 mmHg 91%
02:00 0°C° 0.1 mm 7 mps 742 mmHg 90%
03:00 0°C° 0.1 mm 7 mps 742 mmHg 89%
04:00 0°C° 0.1 mm 7 mps 742 mmHg 88%
05:00 0°C° 0 mm 7 mps 743 mmHg 87%
06:00 0°C° 0 mm 7 mps 743 mmHg 86%
07:00 0°C° 0 mm 7 mps 743 mmHg 85%
08:00 +2°C° 0 mm 7 mps 744 mmHg 82%
09:00 +3°C° 0 mm 7 mps 744 mmHg 80%
10:00 +3°C° 0 mm 7 mps 744 mmHg 77%
11:00 +4°C° 0.3 mm 7 mps 745 mmHg 76%
12:00 +4°C° 0.3 mm 7 mps 745 mmHg 75%
13:00 +5°C° 0.3 mm 7 mps 745 mmHg 73%
14:00 +5°C° 0.3 mm 7 mps 745 mmHg 72%
15:00 +5°C° 0.3 mm 6 mps 745 mmHg 70%
16:00 +5°C° 0.3 mm 6 mps 745 mmHg 68%
17:00 +5°C° 0.1 mm 5 mps 745 mmHg 70%
18:00 +4°C° 0.1 mm 3 mps 746 mmHg 73%
19:00 +4°C° 0.1 mm 2 mps 746 mmHg 76%
20:00 +3°C° 0 mm 2 mps 746 mmHg 77%
21:00 +3°C° 0 mm 2 mps 746 mmHg 78%
22:00 +1°C° 0 mm 3 mps 745 mmHg 80%
23:00 +1°C° 0.1 mm 3 mps 745 mmHg 82%

24 April, Saturday

Time Temperature Precipitation Wind Pressure Humidity
00:00 +1°C° 0.1 mm 4 mps 744 mmHg 84%
01:00 +1°C° 0.1 mm 5 mps 744 mmHg 87%
02:00 +1°C° 0.2 mm 5 mps 744 mmHg 89%
03:00 +1°C° 0.2 mm 5 mps 743 mmHg 91%
04:00 +1°C° 0.2 mm 6 mps 743 mmHg 93%
05:00 +1°C° 0.3 mm 6 mps 743 mmHg 93%
06:00 +1°C° 0.3 mm 6 mps 743 mmHg 94%
07:00 0°C° 0.3 mm 5 mps 744 mmHg 95%
08:00 +1°C° 0.1 mm 5 mps 744 mmHg 90%
09:00 +1°C° 0.1 mm 4 mps 745 mmHg 85%
10:00 +2°C° 0.1 mm 3 mps 745 mmHg 80%
11:00 +3°C° 0.2 mm 4 mps 745 mmHg 73%
12:00 +4°C° 0.2 mm 4 mps 745 mmHg 66%
13:00 +5°C° 0.2 mm 5 mps 746 mmHg 58%
14:00 +5°C° 0.4 mm 5 mps 746 mmHg 58%
15:00 +4°C° 0.4 mm 6 mps 746 mmHg 58%
16:00 +4°C° 0.4 mm 6 mps 746 mmHg 58%
17:00 +3°C° 0.2 mm 5 mps 746 mmHg 62%
18:00 +2°C° 0.2 mm 5 mps 746 mmHg 67%
19:00 +1°C° 0.2 mm 4 mps 746 mmHg 71%
20:00 0°C° 0 mm 4 mps 747 mmHg 73%
21:00 0°C° 0 mm 4 mps 747 mmHg 75%
22:00 -1°C° 0 mm 4 mps 747 mmHg 77%
23:00 -1°C° 0 mm 4 mps 747 mmHg 78%
Show more